When you browse on this site, cookies collect data to enhance your experience and personalize the content and advertising you see.
Visit our Privacy Policy to learn more. By continuing to use the site, you agree to this use of cookies and data.
  • In Hungary
  • List of Countries
  • For 7 days
  • Water Temperature
  • Satellite Maps
  • Weather Map
  • News
  • Weather Widgets
  • user-avatar
    Login

    Hourly Weather Yalova

    Today, 24 February, Sunday

    Time Temperature Precipitation Wind Pressure Humidity
    00:00 0°C° 0.3 mm 7 mps 771 mmHg 92%
    01:00 0°C° 0.3 mm 7 mps 771 mmHg 93%
    02:00 0°C° 0.3 mm 7 mps 771 mmHg 93%
    03:00 0°C° 0.3 mm 7 mps 771 mmHg 94%
    04:00 0°C° 0.3 mm 7 mps 771 mmHg 94%
    05:00 0°C° 0.3 mm 7 mps 771 mmHg 95%
    06:00 0°C° 0.2 mm 7 mps 771 mmHg 95%
    07:00 0°C° 0.2 mm 7 mps 771 mmHg 95%
    08:00 0°C° 0.2 mm 7 mps 771 mmHg 95%
    09:00 +2°C° 0.2 mm 7 mps 771 mmHg 95%
    10:00 +2°C° 0.2 mm 7 mps 771 mmHg 95%
    11:00 +2°C° 0.2 mm 7 mps 771 mmHg 95%
    12:00 +2°C° 0.3 mm 7 mps 770 mmHg 95%
    13:00 +2°C° 0.3 mm 6 mps 770 mmHg 95%
    14:00 +3°C° 0.3 mm 6 mps 770 mmHg 95%
    15:00 +3°C° 0.2 mm 6 mps 770 mmHg 95%
    16:00 +3°C° 0.2 mm 6 mps 770 mmHg 95%
    17:00 +3°C° 0.2 mm 6 mps 770 mmHg 95%
    18:00 +3°C° 0.1 mm 6 mps 770 mmHg 95%
    19:00 +3°C° 0.1 mm 6 mps 771 mmHg 95%
    20:00 +3°C° 0.1 mm 6 mps 771 mmHg 95%
    21:00 +3°C° 0.1 mm 6 mps 771 mmHg 95%
    22:00 +3°C° 0.1 mm 6 mps 771 mmHg 94%
    23:00 +3°C° 0.1 mm 6 mps 771 mmHg 94%

    Tomorrow, 25 February, Monday

    Time Temperature Precipitation Wind Pressure Humidity
    00:00 +3°C° 0 mm 6 mps 771 mmHg 93%
    01:00 +3°C° 0 mm 6 mps 771 mmHg 93%
    02:00 +3°C° 0 mm 6 mps 771 mmHg 93%
    03:00 +3°C° 0 mm 6 mps 771 mmHg 93%
    04:00 +2°C° 0 mm 6 mps 770 mmHg 93%
    05:00 +2°C° 0 mm 7 mps 770 mmHg 94%
    06:00 +3°C° 0.1 mm 7 mps 770 mmHg 93%
    07:00 +3°C° 0.1 mm 6 mps 770 mmHg 92%
    08:00 +3°C° 0.1 mm 6 mps 770 mmHg 92%
    09:00 +4°C° 0 mm 7 mps 770 mmHg 90%
    10:00 +4°C° 0 mm 7 mps 770 mmHg 87%
    11:00 +5°C° 0 mm 7 mps 770 mmHg 85%
    12:00 +5°C° 0 mm 7 mps 770 mmHg 84%
    13:00 +6°C° 0 mm 7 mps 770 mmHg 82%
    14:00 +6°C° 0 mm 7 mps 769 mmHg 80%
    15:00 +6°C° 0 mm 7 mps 769 mmHg 81%
    16:00 +5°C° 0 mm 7 mps 769 mmHg 82%
    17:00 +5°C° 0 mm 6 mps 769 mmHg 84%
    18:00 +4°C° 0 mm 6 mps 769 mmHg 85%
    19:00 +4°C° 0 mm 6 mps 769 mmHg 87%
    20:00 +3°C° 0 mm 5 mps 769 mmHg 89%
    21:00 +3°C° 0 mm 5 mps 769 mmHg 88%
    22:00 +3°C° 0 mm 5 mps 769 mmHg 87%
    23:00 +3°C° 0 mm 5 mps 769 mmHg 87%

    Day after tomorrow, 26 February, Tuesday

    Time Temperature Precipitation Wind Pressure Humidity
    00:00 +3°C° 0 mm 5 mps 768 mmHg 87%
    01:00 +3°C° 0 mm 5 mps 768 mmHg 87%
    02:00 +3°C° 0 mm 5 mps 768 mmHg 86%
    03:00 +4°C° 0 mm 4 mps 768 mmHg 86%
    04:00 +4°C° 0 mm 4 mps 767 mmHg 86%
    05:00 +4°C° 0 mm 4 mps 767 mmHg 85%
    06:00 +4°C° 0 mm 3 mps 766 mmHg 84%
    07:00 +4°C° 0 mm 3 mps 766 mmHg 83%
    08:00 +5°C° 0 mm 2 mps 766 mmHg 82%
    09:00 +5°C° 0 mm 3 mps 766 mmHg 77%
    10:00 +7°C° 0 mm 3 mps 766 mmHg 72%
    11:00 +7°C° 0 mm 3 mps 765 mmHg 68%
    12:00 +8°C° 0 mm 3 mps 765 mmHg 69%
    13:00 +8°C° 0 mm 3 mps 764 mmHg 70%
    14:00 +7°C° 0 mm 4 mps 763 mmHg 71%
    15:00 +8°C° 0 mm 3 mps 763 mmHg 73%
    16:00 +7°C° 0 mm 3 mps 763 mmHg 74%
    17:00 +7°C° 0 mm 3 mps 763 mmHg 76%
    18:00 +5°C° 0 mm 3 mps 763 mmHg 77%
    19:00 +6°C° 0 mm 2 mps 763 mmHg 79%
    20:00 +6°C° 0 mm 2 mps 763 mmHg 81%
    21:00 +6°C° 0 mm 1 mps 762 mmHg 83%
    22:00 +6°C° 0 mm 1 mps 762 mmHg 85%
    23:00 +5°C° 0 mm 0 mps 762 mmHg 86%

    27 February, Wednesday

    Time Temperature Precipitation Wind Pressure Humidity
    00:00 +6°C° 0.1 mm 1 mps 761 mmHg 85%
    01:00 +5°C° 0.1 mm 2 mps 761 mmHg 84%
    02:00 +4°C° 0.1 mm 3 mps 760 mmHg 83%
    03:00 +4°C° 0.3 mm 3 mps 760 mmHg 84%
    04:00 +4°C° 0.3 mm 3 mps 759 mmHg 85%
    05:00 +4°C° 0.3 mm 3 mps 759 mmHg 86%
    06:00 +4°C° 0.7 mm 3 mps 759 mmHg 88%
    07:00 +4°C° 0.7 mm 3 mps 759 mmHg 90%
    08:00 +4°C° 0.7 mm 3 mps 759 mmHg 92%
    09:00 +5°C° 0.6 mm 4 mps 760 mmHg 89%
    10:00 +5°C° 0.6 mm 5 mps 760 mmHg 87%
    11:00 +5°C° 0.6 mm 6 mps 760 mmHg 84%
    12:00 +5°C° 0.5 mm 6 mps 760 mmHg 82%
    13:00 +5°C° 0.5 mm 6 mps 760 mmHg 79%
    14:00 +5°C° 0.5 mm 7 mps 760 mmHg 77%
    15:00 +5°C° 0.4 mm 7 mps 760 mmHg 78%
    16:00 +4°C° 0.4 mm 7 mps 761 mmHg 80%
    17:00 +4°C° 0.4 mm 7 mps 761 mmHg 81%
    18:00 +4°C° 0.2 mm 6 mps 762 mmHg 82%
    19:00 +3°C° 0.2 mm 6 mps 763 mmHg 83%
    20:00 +3°C° 0.2 mm 5 mps 763 mmHg 84%
    21:00 +3°C° 0.2 mm 5 mps 763 mmHg 84%
    22:00 +3°C° 0.2 mm 5 mps 764 mmHg 84%
    23:00 +3°C° 0.2 mm 4 mps 764 mmHg 84%

    28 February, Thursday

    Time Temperature Precipitation Wind Pressure Humidity
    00:00 +3°C° 0.2 mm 4 mps 764 mmHg 84%
    01:00 +3°C° 0.2 mm 4 mps 764 mmHg 84%
    02:00 +3°C° 0.2 mm 3 mps 764 mmHg 84%
    03:00 +3°C° 0.2 mm 3 mps 764 mmHg 85%
    04:00 +3°C° 0.2 mm 3 mps 764 mmHg 85%
    05:00 +3°C° 0.2 mm 3 mps 764 mmHg 85%
    06:00 +3°C° 0.2 mm 3 mps 764 mmHg 86%
    07:00 +3°C° 0.2 mm 4 mps 764 mmHg 86%
    08:00 +3°C° 0.2 mm 4 mps 764 mmHg 87%
    09:00 +4°C° 0.2 mm 4 mps 765 mmHg 85%
    10:00 +4°C° 0.2 mm 4 mps 765 mmHg 83%
    11:00 +4°C° 0.2 mm 4 mps 765 mmHg 80%
    12:00 +5°C° 0 mm 4 mps 765 mmHg 76%
    13:00 +5°C° 0 mm 3 mps 764 mmHg 72%
    14:00 +7°C° 0 mm 3 mps 764 mmHg 68%
    15:00 +5°C° 0 mm 3 mps 764 mmHg 68%
    16:00 +6°C° 0 mm 2 mps 764 mmHg 69%
    17:00 +6°C° 0 mm 2 mps 764 mmHg 70%
    18:00 +5°C° 0 mm 2 mps 764 mmHg 72%
    19:00 +4°C° 0 mm 2 mps 764 mmHg 74%
    20:00 +4°C° 0 mm 2 mps 765 mmHg 76%
    21:00 +2°C° 0 mm 3 mps 764 mmHg 77%
    22:00 +2°C° 0 mm 3 mps 764 mmHg 77%
    23:00 +2°C° 0 mm 3 mps 764 mmHg 78%

    1 March, Friday

    Time Temperature Precipitation Wind Pressure Humidity
    00:00 +2°C° 0 mm 3 mps 764 mmHg 76%
    01:00 +2°C° 0 mm 3 mps 763 mmHg 74%
    02:00 +2°C° 0 mm 3 mps 763 mmHg 72%
    03:00 +2°C° 0 mm 3 mps 763 mmHg 71%
    04:00 +2°C° 0 mm 3 mps 762 mmHg 69%
    05:00 +2°C° 0 mm 3 mps 762 mmHg 68%
    06:00 +3°C° 0 mm 3 mps 762 mmHg 67%
    07:00 +4°C° 0 mm 3 mps 762 mmHg 66%
    08:00 +5°C° 0 mm 3 mps 762 mmHg 65%
    09:00 +7°C° 0 mm 4 mps 761 mmHg 60%
    10:00 +10°C° 0 mm 4 mps 761 mmHg 55%
    11:00 +12°C° 0 mm 4 mps 761 mmHg 50%
    12:00 +13°C° 0 mm 4 mps 760 mmHg 51%
    13:00 +13°C° 0 mm 5 mps 760 mmHg 52%
    14:00 +14°C° 0 mm 5 mps 759 mmHg 52%
    15:00 +13°C° 0 mm 4 mps 759 mmHg 57%
    16:00 +13°C° 0 mm 3 mps 759 mmHg 61%
    17:00 +13°C° 0 mm 2 mps 759 mmHg 66%
    18:00 +12°C° 0 mm 2 mps 760 mmHg 69%
    19:00 +10°C° 0 mm 2 mps 760 mmHg 72%
    20:00 +10°C° 0 mm 1 mps 760 mmHg 75%
    21:00 +8°C° 0 mm 2 mps 760 mmHg 75%
    22:00 +8°C° 0 mm 2 mps 760 mmHg 75%
    23:00 +8°C° 0 mm 2 mps 760 mmHg 76%
    Show more